Location: *
(43.9905°S, 176.4941°W)
Time: 17:53:52
(UTC+00:00)

Cosmos 1758 Rocket - Pass Details

Date: 08 December 2019
Orbit: 601 x 637 km, 82.5° (Epoch: 20 January)

Event Time Altitude Azimuth Distance (km) Brightness Sun altitude
Rises 10:48:13 0° 189° (S) 2,941 8.5 -22.3°
Reaches altitude 10° 10:50:28 10° 188° (S) 2,032 7.3 -22.4°
Maximum altitude 10:55:00 90° 76° (ENE) 645 3.5 -22.6°
Enters shadow 10:55:29 71° 8° (N) 677 3.4 -22.6°
